Location: W�rzburg
(49.7529°N, 9.8822°E)
Time: 04:58:00
(UTC+01:00)

ISS - Pass Details

Date: 14 November 2017
Orbit: 401 x 407 km, 51.6° (Epoch: 25 November)

Event Time Altitude Azimuth Distance (km) Brightness Sun altitude
Exits shadow 05:45:37 43° 240° (WSW) 579 -3.5 -16.9°
Maximum altitude 05:46:07 48° 208° (SSW) 536 -3.4 -16.8°
Drops below altitude 10° 05:49:16 10° 132° (SE) 1,451 -0.2 -16.3°
Sets 05:51:23 0° 127° (SE) 2,307 1.2 -16.0°
